User: anonymous   Login
Location: Unspecified
(0.0000°N, 0.0000°E)
Time: 07:14:05
(UTC+02:00)
Language:

SWIFT - Orbit

View from above orbital plane
View from above orbital plane
View from above satellite
View from above satellite

Ground track
Ground track

The orbit data is extracted from the following two-line orbital elements,

1 28485U 04047A   18146.66590106  .00000783  00000-0  23375-4 0  9997
2 28485  20.5563 252.7612 0011007 258.8636 101.0561 15.04116805739983
Epoch (UTC): 26 May 2018 15:58:53
Eccentricity: 0.0011007
inclination: 20.5563°
perigee height: 546 km
apogee height: 562 km
right ascension of ascending node: 252.7612°
argument of perigee: 258.8636°
revolutions per day: 15.04116805
mean anomaly at epoch: 101.0561°
orbit number at epoch: 73998

The dashed part of the orbit path shows where the satellite is in the earth's shadow,  

DLR